TimeCDT,TemperatureF,Dew PointF,Humidity,Sea Level PressureIn,VisibilityMPH,Wind Direction,Wind SpeedMPH,Gust SpeedMPH,PrecipitationIn,Events,Conditions,WindDirDegrees,DateUTC
12:15 AM,35.6,30.2,81,30.06,10.0,SSW,3.5,-,N/A,,Clear,210,2013-03-12 05:15:00
12:35 AM,33.8,30.2,87,30.05,10.0,WSW,4.6,-,N/A,,Clear,250,2013-03-12 05:35:00
12:55 AM,33.8,30.2,87,30.06,10.0,WSW,4.6,-,N/A,,Clear,250,2013-03-12 05:55:00
1:15 AM,33.8,30.2,87,30.06,10.0,SW,4.6,-,N/A,,Clear,230,2013-03-12 06:15:00
1:35 AM,32.0,28.4,87,30.06,10.0,SW,3.5,-,N/A,,Clear,230,2013-03-12 06:35:00
1:55 AM,33.8,30.2,87,30.07,10.0,Calm,Calm,-,N/A,,Clear,0,2013-03-12 06:55:00
2:15 AM,33.8,28.4,81,30.06,10.0,WSW,3.5,-,N/A,,Clear,250,2013-03-12 07:15:00
2:35 AM,32.0,28.4,87,30.07,10.0,West,4.6,-,N/A,,Clear,280,2013-03-12 07:35:00
2:55 AM,32.0,28.4,87,30.06,10.0,West,4.6,-,N/A,,Clear,260,2013-03-12 07:55:00
3:15 AM,32.0,28.4,87,30.06,10.0,WNW,5.8,-,N/A,,Clear,290,2013-03-12 08:15:00
3:55 AM,30.2,26.6,86,30.06,10.0,WNW,4.6,-,N/A,,Clear,290,2013-03-12 08:55:00
4:15 AM,30.2,28.4,93,30.05,10.0,WNW,4.6,-,N/A,,Clear,290,2013-03-12 09:15:00
4:35 AM,30.2,26.6,86,30.07,10.0,WNW,5.8,-,N/A,,Clear,300,2013-03-12 09:35:00
4:55 AM,30.2,26.6,86,30.07,10.0,WNW,4.6,-,N/A,,Clear,290,2013-03-12 09:55:00
5:15 AM,30.2,26.6,86,30.07,10.0,West,3.5,-,N/A,,Clear,270,2013-03-12 10:15:00
5:35 AM,30.2,26.6,86,30.08,10.0,West,4.6,-,N/A,,Clear,260,2013-03-12 10:35:00
5:55 AM,30.2,26.6,86,30.09,10.0,West,5.8,-,N/A,,Clear,260,2013-03-12 10:55:00
6:15 AM,30.2,26.6,86,30.09,10.0,WNW,4.6,-,N/A,,Clear,290,2013-03-12 11:15:00
6:35 AM,28.4,26.6,93,30.09,10.0,NW,6.9,-,N/A,,Clear,310,2013-03-12 11:35:00
6:55 AM,30.2,26.6,86,30.11,10.0,WNW,4.6,-,N/A,,Clear,300,2013-03-12 11:55:00
7:15 AM,30.2,26.6,86,30.13,10.0,WNW,5.8,-,N/A,,Clear,300,2013-03-12 12:15:00
7:35 AM,30.2,26.6,86,30.14,10.0,West,4.6,-,N/A,,Clear,280,2013-03-12 12:35:00
7:55 AM,30.2,26.6,86,30.15,10.0,West,5.8,-,N/A,,Clear,270,2013-03-12 12:55:00
8:15 AM,32.0,26.6,80,30.17,10.0,West,5.8,-,N/A,,Clear,270,2013-03-12 13:15:00
8:55 AM,33.8,28.4,81,30.18,10.0,West,4.6,-,N/A,,Clear,270,2013-03-12 13:55:00
9:15 AM,35.6,28.4,75,30.18,10.0,WNW,6.9,-,N/A,,Clear,290,2013-03-12 14:15:00
9:35 AM,37.4,30.2,75,30.18,10.0,WNW,3.5,-,N/A,,Clear,300,2013-03-12 14:35:00
9:55 AM,39.2,28.4,65,30.18,10.0,NNW,5.8,-,N/A,,Clear,330,2013-03-12 14:55:00
10:15 AM,39.2,26.6,61,30.20,10.0,NW,6.9,-,N/A,,Clear,310,2013-03-12 15:15:00
10:35 AM,41.0,26.6,57,30.20,10.0,NW,4.6,-,N/A,,Clear,320,2013-03-12 15:35:00
10:55 AM,42.8,26.6,53,30.20,10.0,WNW,5.8,-,N/A,,Clear,300,2013-03-12 15:55:00
11:15 AM,44.6,28.4,53,30.21,10.0,NW,4.6,-,N/A,,Clear,310,2013-03-12 16:15:00
11:35 AM,46.4,26.6,46,30.21,10.0,WNW,6.9,-,N/A,,Clear,300,2013-03-12 16:35:00
11:55 AM,46.4,26.6,46,30.20,10.0,NNW,5.8,-,N/A,,Clear,340,2013-03-12 16:55:00
12:15 PM,46.4,24.8,43,30.20,10.0,WNW,4.6,-,N/A,,Clear,290,2013-03-12 17:15:00
12:35 PM,48.2,26.6,43,30.20,10.0,SW,5.8,-,N/A,,Clear,230,2013-03-12 17:35:00
12:55 PM,48.2,28.4,46,30.20,10.0,WSW,12.7,-,N/A,,Partly Cloudy,250,2013-03-12 17:55:00
1:15 PM,50.0,26.6,40,30.19,10.0,West,9.2,-,N/A,,Clear,260,2013-03-12 18:15:00
1:35 PM,51.8,26.6,38,30.19,10.0,NW,9.2,-,N/A,,Clear,320,2013-03-12 18:35:00
1:55 PM,53.6,26.6,35,30.17,10.0,WNW,8.1,-,N/A,,Clear,290,2013-03-12 18:55:00
2:15 PM,53.6,26.6,35,30.16,10.0,WNW,9.2,-,N/A,,Clear,300,2013-03-12 19:15:00
2:35 PM,53.6,26.6,35,30.16,10.0,NW,6.9,-,N/A,,Clear,310,2013-03-12 19:35:00
2:55 PM,53.6,26.6,35,30.15,10.0,SW,9.2,-,N/A,,Clear,230,2013-03-12 19:55:00
3:15 PM,53.6,26.6,35,30.15,10.0,SW,6.9,-,N/A,,Clear,230,2013-03-12 20:15:00
3:35 PM,55.4,24.8,31,30.14,10.0,WSW,8.1,-,N/A,,Clear,250,2013-03-12 20:35:00
3:55 PM,57.2,28.4,33,30.13,10.0,West,8.1,-,N/A,,Clear,260,2013-03-12 20:55:00
4:15 PM,57.2,26.6,31,30.13,10.0,West,6.9,-,N/A,,Clear,270,2013-03-12 21:15:00
4:35 PM,57.2,26.6,31,30.13,10.0,West,11.5,16.1,N/A,,Clear,270,2013-03-12 21:35:00
4:55 PM,57.2,26.6,31,30.13,10.0,West,8.1,-,N/A,,Clear,280,2013-03-12 21:55:00
5:15 PM,57.2,28.4,33,30.13,10.0,WNW,15.0,19.6,N/A,,Clear,290,2013-03-12 22:15:00
5:35 PM,57.2,28.4,33,30.13,10.0,WNW,15.0,-,N/A,,Clear,290,2013-03-12 22:35:00
5:55 PM,57.2,28.4,33,30.13,10.0,WNW,11.5,-,N/A,,Clear,290,2013-03-12 22:55:00
6:15 PM,55.4,28.4,36,30.13,10.0,WNW,9.2,-,N/A,,Clear,300,2013-03-12 23:15:00
6:35 PM,55.4,30.2,38,30.13,10.0,West,8.1,-,N/A,,Clear,280,2013-03-12 23:35:00
6:55 PM,53.6,28.4,38,30.13,10.0,West,8.1,-,N/A,,Clear,270,2013-03-12 23:55:00
7:15 PM,53.6,28.4,38,30.13,10.0,West,8.1,-,N/A,,Partly Cloudy,270,2013-03-13 00:15:00
7:35 PM,51.8,28.4,41,30.14,10.0,WNW,8.1,-,N/A,,Scattered Clouds,290,2013-03-13 00:35:00
7:55 PM,48.2,35.6,62,30.15,10.0,NNW,11.5,-,N/A,,Mostly Cloudy,340,2013-03-13 00:55:00
8:15 PM,48.2,30.2,50,30.16,10.0,NNW,11.5,-,N/A,,Partly Cloudy,330,2013-03-13 01:15:00
8:35 PM,46.4,32.0,57,30.17,10.0,NNW,10.4,-,N/A,,Clear,330,2013-03-13 01:35:00
8:55 PM,46.4,30.2,53,30.17,10.0,NW,9.2,-,N/A,,Clear,320,2013-03-13 01:55:00
9:15 PM,44.6,32.0,61,30.18,10.0,NW,9.2,-,N/A,,Clear,320,2013-03-13 02:15:00
9:35 PM,44.6,30.2,57,30.19,10.0,NW,11.5,-,N/A,,Clear,320,2013-03-13 02:35:00
9:55 PM,46.4,30.2,53,30.20,10.0,NW,13.8,-,N/A,,Clear,320,2013-03-13 02:55:00
10:15 PM,48.2,28.4,46,30.20,10.0,WNW,12.7,-,N/A,,Clear,300,2013-03-13 03:15:00
10:35 PM,46.4,28.4,50,30.21,10.0,WNW,12.7,-,N/A,,Clear,300,2013-03-13 03:35:00
10:55 PM,44.6,28.4,53,30.22,10.0,NW,10.4,-,N/A,,Clear,310,2013-03-13 03:55:00
11:15 PM,44.6,28.4,53,30.23,10.0,NW,10.4,-,N/A,,Clear,320,2013-03-13 04:15:00
11:35 PM,42.8,30.2,61,30.24,10.0,NW,11.5,-,N/A,,Clear,320,2013-03-13 04:35:00
11:55 PM,42.8,28.4,57,30.24,10.0,NW,13.8,-,N/A,,Clear,310,2013-03-13 04:55:00